sat.trackr.live / text

‹ back to catalog

STARLINK-33573

NORAD 62778 · 2025-015W

PAYLOAD ACTIVE UNKNOWN

§ Identity

Operator
Country
US
Launch date
2025-01-21
Launch site
AFWTR
Launch vehicle
Mass (kg)
RCS (m²)

Purposes: comms

External: N2YO · Heavens-Above · Gunter

§ Orbital elements

Epoch: 2026-09-21T20:13:09.185088Z

Period
93.85 min
Inclination
53.1580°
Eccentricity
0.0001129
Mean motion
15.34405101 rev/d
Perigee alt
461.9 km
Apogee alt
463.5 km
Semi-major
6,840.8 km
B*
6.3876e-4
RAAN
127.7531°
Arg perigee
84.6299°
Mean anomaly
275.4832°
Rev number
9,456

§ Raw data

STARLINK-335731 62778U 25015W   26264.84246742  .00021270  00000+0  63876-3 0  99942 62778  53.1580 127.7531 0001129  84.6299 275.4832 15.34405101 94560

JSON: /api/v1/satellites/62778 · /tle

For live sub-satellite position, see the globe view (requires WebGL).

§ Visibility from observer

Set your observer location to see the next 7 days of passes ≥ 10°. The values pass through the URL so the page stays shareable.

No JS? Fill the form by hand. The geolocation button needs JavaScript.